PDA2900 UKKK-EPWA

Flight info

Callsign PDA2900
Flight time 1h 42m
Altitude 16000
Route KAFEL T731 OKROT M70 SOMOX N191 LIMVI
Aircraft AN24/M-SDRUYZ/C

Departure

Time 2026-04-25 08:16
Airport Ihor Sikorsky Kyiv International Airport (Zhuliany) (UKKK)

Arrival

Time 2026-04-25 09:59
Airport Warsaw Chopin Airport (EPWA)
Time Latitude Longitude Altitude Speed Heading
2026-04-25 08:07 50.41174 30.44591 567 ft 0 kts 40°
2026-04-25 08:13 50.41157 30.44562 567 ft 19 kts 148°
2026-04-25 08:13 50.41126 30.44547 567 ft 9 kts 251°
2026-04-25 08:13 50.41111 30.44402 567 ft 16 kts 287°
2026-04-25 08:14 50.40991 30.44105 567 ft 25 kts 205°
2026-04-25 08:14 50.40777 30.43970 567 ft 37 kts 203°
2026-04-25 08:14 50.40519 30.43795 567 ft 33 kts 208°
2026-04-25 08:14 50.40361 30.43658 567 ft 16 kts 200°
2026-04-25 08:15 50.40282 30.43604 567 ft 15 kts 204°
2026-04-25 08:15 50.40137 30.43533 567 ft 13 kts 154°
2026-04-25 08:15 50.40113 30.43638 567 ft 5 kts 85°
2026-04-25 08:15 50.40120 30.43901 567 ft 62 kts 87°
2026-04-25 08:16 50.40160 30.45037 587 ft 126 kts 92°
2026-04-25 08:16 50.40200 30.46551 890 ft 141 kts 85°
2026-04-25 08:16 50.40292 30.48288 1157 ft 161 kts 90°
2026-04-25 08:16 50.40279 30.50289 1267 ft 189 kts 90°
2026-04-25 08:17 50.40538 30.52311 1827 ft 191 kts 70°
2026-04-25 08:17 50.41212 30.54291 2149 ft 204 kts 52°
2026-04-25 08:17 50.42298 30.55832 2664 ft 202 kts 27°
2026-04-25 08:17 50.43657 30.56508 3184 ft 198 kts
2026-04-25 08:18 50.45044 30.56207 3693 ft 194 kts 334°
2026-04-25 08:18 50.46164 30.54949 4064 ft 196 kts 308°
2026-04-25 08:18 50.46813 30.52994 4485 ft 197 kts 290°
2026-04-25 08:18 50.47318 30.50969 5108 ft 190 kts 290°
2026-04-25 08:19 50.47838 30.48983 5571 ft 190 kts 291°
2026-04-25 08:19 50.48340 30.47034 5985 ft 184 kts 290°
2026-04-25 08:19 50.48819 30.45134 6367 ft 181 kts 290°
2026-04-25 08:19 50.49298 30.43206 6736 ft 179 kts 290°
2026-04-25 08:20 50.49761 30.41323 7084 ft 178 kts 290°
2026-04-25 08:20 50.50234 30.39389 7446 ft 183 kts 290°
2026-04-25 08:20 50.50709 30.37424 7836 ft 187 kts 290°
2026-04-25 08:20 50.51192 30.35403 8245 ft 190 kts 290°
2026-04-25 08:21 50.51683 30.33335 8666 ft 192 kts 290°
2026-04-25 08:21 50.52167 30.31284 9087 ft 193 kts 290°
2026-04-25 08:21 50.52653 30.29213 9511 ft 194 kts 290°
2026-04-25 08:21 50.53124 30.27097 9939 ft 195 kts 285°
2026-04-25 08:22 50.53487 30.24930 10388 ft 195 kts 286°
2026-04-25 08:22 50.53866 30.22767 10800 ft 196 kts 285°
2026-04-25 08:22 50.54232 30.20614 11197 ft 197 kts 285°
2026-04-25 08:22 50.54592 30.18422 11595 ft 198 kts 285°
2026-04-25 08:23 50.54947 30.16240 11995 ft 199 kts 285°
2026-04-25 08:23 50.55302 30.14058 12384 ft 201 kts 285°
2026-04-25 08:23 50.55662 30.11847 12777 ft 201 kts 285°
2026-04-25 08:23 50.56020 30.09649 13166 ft 202 kts 285°
2026-04-25 08:24 50.56380 30.07423 13556 ft 201 kts 285°
2026-04-25 08:24 50.56735 30.05222 13938 ft 201 kts 285°
2026-04-25 08:24 50.57088 30.03022 14299 ft 201 kts 285°
2026-04-25 08:24 50.57441 30.00809 14650 ft 201 kts 285°
2026-04-25 08:25 50.57793 29.98598 14998 ft 201 kts 285°
2026-04-25 08:25 50.58132 29.96374 15350 ft 201 kts 285°
2026-04-25 08:25 50.58463 29.94185 15677 ft 202 kts 285°
2026-04-25 08:25 50.58845 29.91849 15618 ft 221 kts 285°
2026-04-25 08:26 50.59251 29.89371 15722 ft 230 kts 285°
2026-04-25 08:26 50.59673 29.86764 15729 ft 242 kts 285°
2026-04-25 08:26 50.60111 29.84030 15689 ft 253 kts 285°
2026-04-25 08:26 50.60554 29.81249 15686 ft 253 kts 285°
2026-04-25 08:27 50.60999 29.78468 15673 ft 254 kts 285°
2026-04-25 08:27 50.61449 29.75675 15688 ft 253 kts 285°
2026-04-25 08:27 50.61906 29.72849 15674 ft 254 kts 285°
2026-04-25 08:27 50.62361 29.70039 15685 ft 253 kts 285°
2026-04-25 08:28 50.62811 29.67255 15677 ft 254 kts 285°
2026-04-25 08:28 50.63263 29.64459 15677 ft 254 kts 285°
2026-04-25 08:28 50.63679 29.61660 15681 ft 252 kts 281°
2026-04-25 08:28 50.63791 29.58831 15703 ft 247 kts 269°
2026-04-25 08:29 50.63533 29.56052 15673 ft 245 kts 257°
2026-04-25 08:29 50.62906 29.53409 15653 ft 244 kts 245°
2026-04-25 08:29 50.61951 29.51085 15665 ft 241 kts 232°
2026-04-25 08:29 50.60744 29.49130 15668 ft 239 kts 228°
2026-04-25 08:30 50.59792 29.46946 15664 ft 234 kts 248°
2026-04-25 08:30 50.59361 29.44378 15676 ft 228 kts 268°
2026-04-25 08:30 50.59511 29.41793 15680 ft 224 kts 282°
2026-04-25 08:30 50.59815 29.39270 15645 ft 225 kts 282°
2026-04-25 08:31 50.60104 29.36745 15675 ft 222 kts 282°
2026-04-25 08:31 50.60407 29.34259 15710 ft 219 kts 282°
2026-04-25 08:31 50.60727 29.31751 15622 ft 223 kts 282°
2026-04-25 08:31 50.61050 29.29254 15668 ft 219 kts 282°
2026-04-25 08:32 50.61367 29.26796 15707 ft 217 kts 282°
2026-04-25 08:32 50.61683 29.24339 15693 ft 218 kts 282°
2026-04-25 08:32 50.61999 29.21868 15676 ft 218 kts 282°
2026-04-25 08:32 50.62312 29.19412 15682 ft 217 kts 282°
2026-04-25 08:33 50.62622 29.16972 15674 ft 217 kts 282°
2026-04-25 08:33 50.62920 29.14507 15691 ft 216 kts 280°
2026-04-25 08:33 50.63125 29.12044 15695 ft 216 kts 278°
2026-04-25 08:33 50.63323 29.09549 15674 ft 221 kts 278°
2026-04-25 08:34 50.63533 29.07034 15689 ft 224 kts 279°
2026-04-25 08:34 50.63755 29.04428 15681 ft 228 kts 279°
2026-04-25 08:34 50.63977 29.01828 15684 ft 231 kts 278°
2026-04-25 08:34 50.64205 28.99195 15680 ft 233 kts 278°
2026-04-25 08:35 50.64446 28.96508 15679 ft 235 kts 279°
2026-04-25 08:35 50.64697 28.93837 15680 ft 237 kts 279°
2026-04-25 08:35 50.64962 28.91146 15675 ft 239 kts 279°
2026-04-25 08:35 50.65239 28.88462 15686 ft 239 kts 279°
2026-04-25 08:36 50.65530 28.85758 15668 ft 241 kts 279°
2026-04-25 08:36 50.65831 28.83052 15687 ft 241 kts 279°
2026-04-25 08:36 50.66143 28.80328 15672 ft 243 kts 279°
2026-04-25 08:36 50.66462 28.77605 15682 ft 244 kts 279°
2026-04-25 08:37 50.66781 28.74871 15684 ft 244 kts 279°
2026-04-25 08:37 50.67101 28.72092 15679 ft 245 kts 279°
2026-04-25 08:37 50.67425 28.69341 15673 ft 246 kts 279°
2026-04-25 08:37 50.67751 28.66586 15687 ft 246 kts 279°
2026-04-25 08:38 50.68080 28.63804 15673 ft 247 kts 279°
2026-04-25 08:38 50.68403 28.61058 15687 ft 247 kts 279°
2026-04-25 08:38 50.68730 28.58263 15672 ft 248 kts 279°
2026-04-25 08:38 50.69053 28.55500 15686 ft 248 kts 279°
2026-04-25 08:39 50.69377 28.52724 15668 ft 249 kts 279°
2026-04-25 08:39 50.69704 28.49917 15662 ft 249 kts 279°
2026-04-25 08:39 50.70032 28.47110 15647 ft 250 kts 279°
2026-04-25 08:39 50.70358 28.44309 15645 ft 250 kts 279°
2026-04-25 08:40 50.70686 28.41488 15622 ft 248 kts 279°
2026-04-25 08:40 50.70985 28.38716 15628 ft 246 kts 278°
2026-04-25 08:40 50.71277 28.35936 15630 ft 244 kts 278°
2026-04-25 08:40 50.71564 28.33196 15567 ft 245 kts 277°
2026-04-25 08:41 50.71842 28.30439 15560 ft 244 kts 277°
2026-04-25 08:41 50.72115 28.27684 15620 ft 240 kts 277°
2026-04-25 08:41 50.72384 28.24988 15583 ft 241 kts 277°
2026-04-25 08:41 50.72654 28.22273 15550 ft 241 kts 277°
2026-04-25 08:42 50.72924 28.19566 15617 ft 237 kts 277°
2026-04-25 08:42 50.73193 28.16906 15594 ft 238 kts 277°
2026-04-25 08:42 50.73466 28.14189 15542 ft 240 kts 277°
2026-04-25 08:42 50.73734 28.11527 15613 ft 236 kts 277°
2026-04-25 08:43 50.73916 28.08862 15630 ft 235 kts 273°
2026-04-25 08:43 50.74063 28.06122 15492 ft 240 kts 274°
2026-04-25 08:43 50.74210 28.03427 15599 ft 234 kts 273°
2026-04-25 08:43 50.74342 28.00793 15643 ft 233 kts 272°
2026-04-25 08:44 50.74467 27.98097 15568 ft 236 kts 272°
2026-04-25 08:44 50.74588 27.95391 15568 ft 236 kts 272°
2026-04-25 08:44 50.74524 27.92763 15675 ft 229 kts 260°
2026-04-25 08:44 50.74095 27.90201 15571 ft 234 kts 248°
2026-04-25 08:45 50.73307 27.87827 15517 ft 234 kts 235°
2026-04-25 08:45 50.72221 27.85826 15598 ft 230 kts 223°
2026-04-25 08:45 50.71105 27.83910 15603 ft 230 kts 236°
2026-04-25 08:45 50.70441 27.81521 15624 ft 230 kts 256°
2026-04-25 08:46 50.70269 27.78902 15630 ft 230 kts 263°
2026-04-25 08:46 50.70120 27.76275 15570 ft 233 kts 263°
2026-04-25 08:46 50.69964 27.73612 15641 ft 230 kts 264°
2026-04-25 08:46 50.69846 27.71009 15661 ft 230 kts 265°
2026-04-25 08:47 50.69752 27.68395 15591 ft 233 kts 266°
2026-04-25 08:47 50.69660 27.65726 15641 ft 231 kts 265°
2026-04-25 08:47 50.69570 27.63100 15673 ft 230 kts 266°
2026-04-25 08:47 50.69691 27.60460 15652 ft 233 kts 279°
2026-04-25 08:48 50.70068 27.57852 15619 ft 235 kts 280°
2026-04-25 08:48 50.70411 27.55230 15629 ft 234 kts 281°
2026-04-25 08:48 50.70764 27.52672 15722 ft 230 kts 282°
2026-04-25 08:48 50.71146 27.50102 15727 ft 231 kts 282°
2026-04-25 08:49 50.71545 27.47508 15697 ft 233 kts 282°
2026-04-25 08:49 50.71938 27.44960 15796 ft 229 kts 282°
2026-04-25 08:49 50.72329 27.42408 15820 ft 229 kts 282°
2026-04-25 08:49 50.72714 27.39873 15783 ft 231 kts 282°
2026-04-25 08:50 50.73099 27.37329 15861 ft 228 kts 282°
2026-04-25 08:50 50.73483 27.34806 15903 ft 228 kts 281°
2026-04-25 08:50 50.73874 27.32217 15778 ft 234 kts 281°
2026-04-25 08:50 50.74266 27.29591 15833 ft 232 kts 281°
2026-04-25 08:51 50.74648 27.27051 15898 ft 230 kts 281°
2026-04-25 08:51 50.75041 27.24447 15815 ft 234 kts 281°
2026-04-25 08:51 50.75431 27.21852 15793 ft 235 kts 281°
2026-04-25 08:51 50.75821 27.19250 15812 ft 235 kts 281°
2026-04-25 08:52 50.76217 27.16617 15809 ft 235 kts 281°
2026-04-25 08:52 50.76609 27.13995 15793 ft 236 kts 281°
2026-04-25 08:52 50.76998 27.11397 15802 ft 235 kts 281°
2026-04-25 08:52 50.77391 27.08765 15781 ft 236 kts 281°
2026-04-25 08:53 50.77784 27.06140 15796 ft 236 kts 282°
2026-04-25 08:53 50.78180 27.03499 15784 ft 236 kts 282°
2026-04-25 08:53 50.78576 27.00860 15786 ft 236 kts 282°
2026-04-25 08:53 50.78972 26.98219 15790 ft 236 kts 282°
2026-04-25 08:54 50.79365 26.95595 15778 ft 237 kts 282°
2026-04-25 08:54 50.79761 26.92945 15793 ft 236 kts 282°
2026-04-25 08:54 50.80151 26.90333 15779 ft 237 kts 282°
2026-04-25 08:54 50.80548 26.87672 15795 ft 236 kts 282°
2026-04-25 08:55 50.80937 26.85062 15793 ft 237 kts 282°
2026-04-25 08:55 50.81334 26.82398 15774 ft 238 kts 282°
2026-04-25 08:55 50.81724 26.79778 15786 ft 237 kts 282°
2026-04-25 08:55 50.82123 26.77094 15766 ft 238 kts 282°
2026-04-25 08:56 50.82516 26.74448 15776 ft 238 kts 282°
2026-04-25 08:56 50.82915 26.71769 15764 ft 238 kts 282°
2026-04-25 08:56 50.83306 26.69132 15757 ft 238 kts 282°
2026-04-25 08:56 50.83702 26.66464 15762 ft 238 kts 282°
2026-04-25 08:57 50.84098 26.63794 15744 ft 239 kts 282°
2026-04-25 08:57 50.84488 26.61159 15753 ft 239 kts 282°
2026-04-25 08:57 50.84882 26.58502 15728 ft 240 kts 282°
2026-04-25 08:57 50.85276 26.55842 15734 ft 239 kts 282°
2026-04-25 08:58 50.85669 26.53186 15721 ft 240 kts 282°
2026-04-25 08:58 50.86063 26.50521 15715 ft 240 kts 282°
2026-04-25 08:58 50.86451 26.47891 15719 ft 239 kts 282°
2026-04-25 08:58 50.86845 26.45228 15700 ft 240 kts 282°
2026-04-25 08:59 50.87240 26.42553 15716 ft 239 kts 282°
2026-04-25 08:59 50.87637 26.39877 15703 ft 240 kts 282°
2026-04-25 08:59 50.88034 26.37194 15705 ft 239 kts 282°
2026-04-25 08:59 50.88425 26.34548 15711 ft 239 kts 281°
2026-04-25 09:00 50.88823 26.31842 15655 ft 241 kts 281°
2026-04-25 09:00 50.89214 26.29180 15729 ft 237 kts 281°
2026-04-25 09:00 50.89608 26.26521 15729 ft 238 kts 281°
2026-04-25 09:00 50.90007 26.23839 15662 ft 241 kts 281°
2026-04-25 09:01 50.90407 26.21156 15726 ft 237 kts 281°
2026-04-25 09:01 50.90802 26.18523 15735 ft 238 kts 281°
2026-04-25 09:01 50.91204 26.15845 15665 ft 241 kts 281°
2026-04-25 09:01 50.91604 26.13173 15721 ft 237 kts 281°
2026-04-25 09:02 50.91998 26.10559 15741 ft 237 kts 281°
2026-04-25 09:02 50.92402 26.07882 15664 ft 240 kts 281°
2026-04-25 09:02 50.92807 26.05192 15717 ft 238 kts 281°
2026-04-25 09:02 50.93206 26.02562 15743 ft 237 kts 281°
2026-04-25 09:03 50.93613 25.99893 15667 ft 240 kts 281°
2026-04-25 09:03 50.94016 25.97235 15712 ft 238 kts 281°
2026-04-25 09:03 50.94424 25.94564 15747 ft 237 kts 281°
2026-04-25 09:03 50.94827 25.91928 15673 ft 240 kts 281°
2026-04-25 09:04 50.95240 25.89226 15705 ft 238 kts 281°
2026-04-25 09:04 50.95642 25.86612 15752 ft 236 kts 282°
2026-04-25 09:04 50.96053 25.83954 15674 ft 240 kts 282°
2026-04-25 09:04 50.96466 25.81284 15699 ft 238 kts 282°
2026-04-25 09:05 50.96876 25.78639 15752 ft 236 kts 282°
2026-04-25 09:05 50.97291 25.75975 15678 ft 239 kts 282°
2026-04-25 09:05 50.97706 25.73298 15694 ft 238 kts 282°
2026-04-25 09:05 50.98116 25.70661 15753 ft 236 kts 282°
2026-04-25 09:06 50.98532 25.68001 15680 ft 239 kts 282°
2026-04-25 09:06 50.98945 25.65356 15690 ft 238 kts 282°
2026-04-25 09:06 50.99359 25.62711 15755 ft 235 kts 282°
2026-04-25 09:06 50.99778 25.60057 15684 ft 239 kts 282°
2026-04-25 09:07 51.00198 25.57381 15686 ft 238 kts 282°
2026-04-25 09:07 51.00613 25.54748 15755 ft 235 kts 282°
2026-04-25 09:07 51.01032 25.52099 15687 ft 238 kts 282°
2026-04-25 09:07 51.01453 25.49436 15683 ft 238 kts 282°
2026-04-25 09:08 51.01871 25.46802 15753 ft 235 kts 282°
2026-04-25 09:08 51.02293 25.44160 15691 ft 238 kts 282°
2026-04-25 09:08 51.02719 25.41488 15678 ft 238 kts 282°
2026-04-25 09:08 51.03135 25.38884 15753 ft 235 kts 282°
2026-04-25 09:09 51.03559 25.36246 15696 ft 238 kts 282°
2026-04-25 09:09 51.03991 25.33544 15660 ft 239 kts 281°
2026-04-25 09:09 51.04408 25.30925 15728 ft 235 kts 281°
2026-04-25 09:09 51.04829 25.28290 15725 ft 236 kts 281°
2026-04-25 09:10 51.05253 25.25631 15659 ft 239 kts 281°
2026-04-25 09:10 51.05669 25.23018 15726 ft 235 kts 281°
2026-04-25 09:10 51.06091 25.20387 15733 ft 235 kts 281°
2026-04-25 09:10 51.06517 25.17729 15663 ft 238 kts 281°
2026-04-25 09:11 51.07349 25.12488 15738 ft 235 kts 281°
2026-04-25 09:11 51.07769 25.09816 15666 ft 238 kts 281°
2026-04-25 09:11 51.08180 25.07159 15718 ft 235 kts 281°
2026-04-25 09:12 51.08581 25.04554 15743 ft 235 kts 281°
2026-04-25 09:12 51.08983 25.01924 15665 ft 238 kts 281°
2026-04-25 09:12 51.09386 24.99258 15715 ft 235 kts 281°
2026-04-25 09:12 51.09784 24.96619 15745 ft 234 kts 281°
2026-04-25 09:13 51.10180 24.93984 15664 ft 238 kts 281°
2026-04-25 09:13 51.10595 24.91320 15698 ft 236 kts 282°
2026-04-25 09:13 51.11008 24.88691 15749 ft 233 kts 281°
2026-04-25 09:13 51.11412 24.86086 15679 ft 237 kts 281°
2026-04-25 09:14 51.11815 24.83439 15692 ft 235 kts 281°
2026-04-25 09:14 51.12210 24.80843 15754 ft 233 kts 281°
2026-04-25 09:14 51.12610 24.78220 15685 ft 236 kts 281°
2026-04-25 09:14 51.13012 24.75579 15685 ft 235 kts 281°
2026-04-25 09:15 51.13412 24.72958 15753 ft 232 kts 281°
2026-04-25 09:15 51.13814 24.70333 15690 ft 236 kts 281°
2026-04-25 09:15 51.14214 24.67715 15679 ft 236 kts 281°
2026-04-25 09:15 51.14613 24.65102 15750 ft 232 kts 281°
2026-04-25 09:16 51.15016 24.62458 15694 ft 235 kts 281°
2026-04-25 09:16 51.15416 24.59827 15673 ft 236 kts 281°
2026-04-25 09:16 51.15814 24.57205 15747 ft 232 kts 281°
2026-04-25 09:16 51.16211 24.54598 15702 ft 235 kts 281°
2026-04-25 09:17 51.17009 24.49345 15745 ft 233 kts 282°
2026-04-25 09:17 51.17408 24.46729 15708 ft 235 kts 282°
2026-04-25 09:17 51.17808 24.44093 15666 ft 236 kts 282°
2026-04-25 09:18 51.18204 24.41481 15739 ft 233 kts 282°
2026-04-25 09:18 51.18604 24.38855 15716 ft 234 kts 282°
2026-04-25 09:18 51.19005 24.36213 15662 ft 237 kts 282°
2026-04-25 09:18 51.19403 24.33581 15718 ft 234 kts 281°
2026-04-25 09:19 51.19794 24.30974 15705 ft 235 kts 281°
2026-04-25 09:19 51.20194 24.28311 15715 ft 234 kts 281°
2026-04-25 09:19 51.20584 24.25712 15707 ft 235 kts 281°
2026-04-25 09:19 51.20983 24.23067 15708 ft 235 kts 281°
2026-04-25 09:20 51.21379 24.20431 15711 ft 235 kts 281°
2026-04-25 09:20 51.21772 24.17821 15705 ft 235 kts 281°
2026-04-25 09:20 51.22167 24.15192 15712 ft 235 kts 281°
2026-04-25 09:20 51.22562 24.12559 15701 ft 235 kts 281°
2026-04-25 09:21 51.22957 24.09928 15716 ft 234 kts 281°
2026-04-25 09:21 51.23350 24.07302 15700 ft 235 kts 281°
2026-04-25 09:21 51.23745 24.04670 15716 ft 234 kts 281°
2026-04-25 09:21 51.24137 24.02053 15700 ft 235 kts 281°
2026-04-25 09:22 51.24536 23.99391 15714 ft 235 kts 281°
2026-04-25 09:22 51.24925 23.96797 15702 ft 235 kts 281°
2026-04-25 09:22 51.25323 23.94128 15706 ft 235 kts 281°
2026-04-25 09:22 51.25716 23.91504 15712 ft 235 kts 281°
2026-04-25 09:23 51.26107 23.88881 15701 ft 235 kts 281°
2026-04-25 09:23 51.26502 23.86240 15715 ft 235 kts 281°
2026-04-25 09:23 51.26896 23.83601 15699 ft 235 kts 281°
2026-04-25 09:23 51.27287 23.80978 15717 ft 235 kts 281°
2026-04-25 09:24 51.27680 23.78352 15702 ft 235 kts 281°
2026-04-25 09:24 51.28076 23.75697 15713 ft 235 kts 281°
2026-04-25 09:24 51.28468 23.73065 15709 ft 235 kts 281°
2026-04-25 09:24 51.28858 23.70447 15719 ft 234 kts 281°
2026-04-25 09:25 51.29254 23.67790 15732 ft 234 kts 281°
2026-04-25 09:25 51.29646 23.65161 15728 ft 234 kts 281°
2026-04-25 09:25 51.30032 23.62568 15751 ft 234 kts 281°
2026-04-25 09:25 51.30427 23.59921 15738 ft 234 kts 281°
2026-04-25 09:26 51.30820 23.57278 15760 ft 234 kts 281°
2026-04-25 09:26 51.31210 23.54656 15756 ft 234 kts 281°
2026-04-25 09:26 51.31596 23.52053 15769 ft 234 kts 281°
2026-04-25 09:26 51.31987 23.49423 15773 ft 234 kts 281°
2026-04-25 09:27 51.32380 23.46773 15764 ft 234 kts 281°
2026-04-25 09:27 51.32770 23.44145 15773 ft 234 kts 281°
2026-04-25 09:27 51.33163 23.41496 15759 ft 235 kts 281°
2026-04-25 09:27 51.33580 23.38899 15779 ft 235 kts 287°
2026-04-25 09:28 51.34304 23.36419 15796 ft 236 kts 296°
2026-04-25 09:28 51.35124 23.33968 15674 ft 241 kts 294°
2026-04-25 09:28 51.35876 23.31655 15753 ft 237 kts 295°
2026-04-25 09:28 51.36684 23.29253 15835 ft 234 kts 296°
2026-04-25 09:29 51.37500 23.26903 15758 ft 238 kts 296°
2026-04-25 09:29 51.38344 23.24486 15737 ft 239 kts 296°
2026-04-25 09:29 51.39176 23.22100 15761 ft 238 kts 296°
2026-04-25 09:29 51.40015 23.19689 15764 ft 238 kts 296°
2026-04-25 09:30 51.40847 23.17293 15765 ft 238 kts 296°
2026-04-25 09:30 51.41676 23.14903 15773 ft 238 kts 296°
2026-04-25 09:30 51.42512 23.12485 15760 ft 238 kts 296°
2026-04-25 09:30 51.43341 23.10088 15773 ft 238 kts 296°
2026-04-25 09:31 51.44171 23.07687 15758 ft 238 kts 296°
2026-04-25 09:31 51.44732 23.06066 15769 ft 238 kts 296°
2026-04-25 09:31 51.45836 23.02873 15762 ft 238 kts 296°
2026-04-25 09:31 51.46678 23.00438 15770 ft 238 kts 296°
2026-04-25 09:32 51.47508 22.98041 15763 ft 238 kts 296°
2026-04-25 09:32 51.48346 22.95622 15768 ft 238 kts 296°
2026-04-25 09:32 51.49178 22.93224 15768 ft 238 kts 296°
2026-04-25 09:32 51.50006 22.90838 15766 ft 238 kts 296°
2026-04-25 09:33 51.50845 22.88424 15771 ft 238 kts 296°
2026-04-25 09:33 51.51686 22.86004 15761 ft 238 kts 296°
2026-04-25 09:33 51.52509 22.83638 15776 ft 237 kts 296°
2026-04-25 09:33 51.53341 22.81246 15760 ft 237 kts 296°
2026-04-25 09:34 51.54185 22.78820 15773 ft 236 kts 296°
2026-04-25 09:34 51.55014 22.76435 15759 ft 237 kts 296°
2026-04-25 09:34 51.55841 22.74059 15769 ft 236 kts 296°
2026-04-25 09:34 51.56678 22.71654 15763 ft 236 kts 296°
2026-04-25 09:35 51.57508 22.69269 15762 ft 236 kts 296°
2026-04-25 09:35 51.58340 22.66874 15771 ft 236 kts 296°
2026-04-25 09:35 51.59170 22.64486 15762 ft 236 kts 296°
2026-04-25 09:35 51.59995 22.62111 15775 ft 235 kts 297°
2026-04-25 09:36 51.60825 22.59721 15757 ft 236 kts 297°
2026-04-25 09:36 51.61663 22.57307 15774 ft 235 kts 297°
2026-04-25 09:36 51.62483 22.54944 15760 ft 236 kts 297°
2026-04-25 09:36 51.63318 22.52539 15773 ft 235 kts 297°
2026-04-25 09:37 51.64143 22.50161 15760 ft 236 kts 297°
2026-04-25 09:37 51.64974 22.47763 15766 ft 235 kts 297°
2026-04-25 09:37 51.65799 22.45383 15766 ft 236 kts 297°
2026-04-25 09:37 51.66631 22.42982 15764 ft 236 kts 297°
2026-04-25 09:38 51.67463 22.40580 15771 ft 235 kts 297°
2026-04-25 09:38 51.68286 22.38204 15759 ft 236 kts 297°
2026-04-25 09:38 51.69111 22.35820 15774 ft 235 kts 297°
2026-04-25 09:38 51.69945 22.33405 15741 ft 237 kts 296°
2026-04-25 09:39 51.70766 22.31008 15754 ft 236 kts 296°
2026-04-25 09:39 51.71589 22.28610 15815 ft 233 kts 296°
2026-04-25 09:39 51.72404 22.26241 15742 ft 237 kts 296°
2026-04-25 09:40 51.74043 22.21475 15814 ft 234 kts 296°
2026-04-25 09:40 51.74858 22.19110 15749 ft 237 kts 296°
2026-04-25 09:40 51.75684 22.16709 15738 ft 237 kts 296°
2026-04-25 09:40 51.76505 22.14322 15811 ft 234 kts 296°
2026-04-25 09:41 51.77317 22.11964 15755 ft 237 kts 296°
2026-04-25 09:41 51.78146 22.09544 15731 ft 237 kts 296°
2026-04-25 09:41 51.78958 22.07175 15805 ft 234 kts 296°
2026-04-25 09:41 51.79774 22.04797 15764 ft 237 kts 296°
2026-04-25 09:42 51.80603 22.02380 15734 ft 236 kts 296°
2026-04-25 09:42 51.81383 22.00102 15761 ft 219 kts 296°
2026-04-25 09:42 51.82135 21.97926 15594 ft 210 kts 296°
2026-04-25 09:42 51.82857 21.95839 15213 ft 203 kts 296°
2026-04-25 09:43 51.83538 21.93885 14943 ft 189 kts 296°
2026-04-25 09:43 51.84193 21.92015 14545 ft 183 kts 296°
2026-04-25 09:43 51.84832 21.90205 14139 ft 178 kts 296°
2026-04-25 09:43 51.85454 21.88444 13714 ft 174 kts 296°
2026-04-25 09:44 51.86071 21.86703 13255 ft 174 kts 296°
2026-04-25 09:44 51.86686 21.84964 12794 ft 173 kts 296°
2026-04-25 09:44 51.87300 21.83225 12335 ft 172 kts 296°
2026-04-25 09:44 51.87908 21.81504 11876 ft 171 kts 296°
2026-04-25 09:45 51.88514 21.79786 11423 ft 170 kts 296°
2026-04-25 09:45 51.89125 21.78056 10971 ft 169 kts 296°
2026-04-25 09:45 51.89726 21.76357 10527 ft 167 kts 296°
2026-04-25 09:45 51.90320 21.74683 10088 ft 166 kts 296°
2026-04-25 09:46 51.90909 21.73024 9650 ft 164 kts 296°
2026-04-25 09:46 51.91495 21.71375 9212 ft 163 kts 296°
2026-04-25 09:46 51.92079 21.69735 8775 ft 161 kts 296°
2026-04-25 09:46 51.92649 21.68135 8347 ft 159 kts 296°
2026-04-25 09:47 51.93222 21.66524 7912 ft 157 kts 296°
2026-04-25 09:47 51.93779 21.64962 7486 ft 155 kts 296°
2026-04-25 09:47 51.94338 21.63400 7096 ft 150 kts 296°
2026-04-25 09:47 51.94873 21.61911 6818 ft 151 kts 296°
2026-04-25 09:48 51.95455 21.60390 6605 ft 157 kts 298°
2026-04-25 09:48 51.96075 21.58806 6415 ft 160 kts 298°
2026-04-25 09:48 51.96697 21.57208 6241 ft 162 kts 299°
2026-04-25 09:48 51.97338 21.55652 6089 ft 162 kts 300°
2026-04-25 09:49 51.97990 21.54055 5899 ft 165 kts 300°
2026-04-25 09:49 51.98647 21.52445 5678 ft 169 kts 300°
2026-04-25 09:49 51.99316 21.50817 5478 ft 171 kts 300°
2026-04-25 09:49 52.00003 21.49147 5275 ft 172 kts 300°
2026-04-25 09:50 52.00687 21.47497 5094 ft 173 kts 300°
2026-04-25 09:50 52.01373 21.45834 4914 ft 172 kts 300°
2026-04-25 09:50 52.02058 21.44159 4743 ft 171 kts 300°
2026-04-25 09:50 52.02724 21.42503 4568 ft 170 kts 300°
2026-04-25 09:51 52.03393 21.40848 4399 ft 169 kts 300°
2026-04-25 09:51 52.04056 21.39210 4224 ft 169 kts 300°
2026-04-25 09:51 52.04708 21.37557 4058 ft 168 kts 298°
2026-04-25 09:51 52.05340 21.35913 3886 ft 168 kts 298°
2026-04-25 09:52 52.05956 21.34258 3717 ft 166 kts 293°
2026-04-25 09:52 52.06487 21.32545 3528 ft 167 kts 294°
2026-04-25 09:52 52.07034 21.30798 3336 ft 167 kts 293°
2026-04-25 09:52 52.07564 21.29086 3126 ft 163 kts 293°
2026-04-25 09:53 52.08036 21.27374 2882 ft 159 kts 289°
2026-04-25 09:53 52.08541 21.25720 2606 ft 157 kts 295°
2026-04-25 09:53 52.09055 21.24210 2581 ft 142 kts 297°
2026-04-25 09:53 52.09583 21.22828 2479 ft 134 kts 297°
2026-04-25 09:54 52.10109 21.21498 2195 ft 140 kts 292°
2026-04-25 09:54 52.10470 21.20067 2161 ft 127 kts 286°
2026-04-25 09:54 52.10903 21.18767 2007 ft 126 kts 297°
2026-04-25 09:54 52.11383 21.17608 1974 ft 117 kts 302°
2026-04-25 09:55 52.11808 21.16422 1806 ft 118 kts 290°
2026-04-25 09:55 52.12201 21.15155 1735 ft 121 kts 296°
2026-04-25 09:55 52.12539 21.13870 1652 ft 119 kts 280°
2026-04-25 09:55 52.12868 21.12562 1629 ft 120 kts 293°
2026-04-25 09:56 52.13271 21.11349 1596 ft 117 kts 287°
2026-04-25 09:56 52.13465 21.10040 1577 ft 114 kts 281°
2026-04-25 09:56 52.13654 21.08779 1574 ft 112 kts 281°
2026-04-25 09:56 52.13880 21.07544 1565 ft 111 kts 282°
2026-04-25 09:57 52.14188 21.06325 1597 ft 115 kts 288°
2026-04-25 09:57 52.14589 21.05121 1666 ft 125 kts 295°
2026-04-25 09:57 52.14940 21.03703 1638 ft 134 kts 282°
2026-04-25 09:57 52.15214 21.02210 1388 ft 140 kts 287°
2026-04-25 09:58 52.15526 21.00712 919 ft 133 kts 287°
2026-04-25 09:58 52.15855 20.99417 619 ft 107 kts 288°
2026-04-25 09:58 52.16132 20.98323 397 ft 104 kts 289°
2026-04-25 09:58 52.16408 20.97307 338 ft 77 kts 288°
2026-04-25 09:59 52.16508 20.96930 335 ft 0 kts 295°
2026-04-25 09:59 52.16558 20.96756 334 ft 27 kts 293°
2026-04-25 09:59 52.16593 20.96627 334 ft 16 kts 290°
2026-04-25 09:59 52.16665 20.96372 335 ft 37 kts 294°
2026-04-25 10:00 52.16785 20.95931 343 ft 31 kts 298°
2026-04-25 10:00 52.16843 20.95722 347 ft 13 kts 293°
2026-04-25 10:00 52.16864 20.95532 350 ft 16 kts 223°
2026-04-25 10:00 52.16751 20.95417 351 ft 15 kts 218°
2026-04-25 10:01 52.16631 20.95317 351 ft 6 kts 200°
2026-04-25 10:01 52.16625 20.95313 351 ft 0 kts 199°